Tracking 29487 objects as of 11-Sep-2024
HD Live streaming from Space Station
objects crossing your sky now

TITAN 3C TRANSTAGE DEB

Track TITAN 3C TRANSTAGE DEB now!
10-day predictions


NORAD ID: 1642
Int'l Code: 1965-082D
Perigee: 613.4 km
Apogee: 646.3 km
Inclination: 32.1 °
Period: 97.2 minutes
Semi major axis: 7000 km
RCS: 2.2943 m2 (large)
Launch date: October 15, 1965
Source: United States (US)
Launch site: AIR FORCE EASTERN TEST RANGE (AFETR)

Note: This is SATELLITE DEBRIS
Your satellite tracking list
Your tracking list is empty




NASA's NSSDC Master Catalog

Two Line Element Set (TLE):
1 01642U 65082D   24254.93057522  .00004447  00000-0  54031-3 0  9999
2 01642  32.0926 168.2033 0023482  73.1683 287.1541 14.82094908141837
Source of the keplerian elements: AFSPC